Regional Weather Roundup
Issued by NWS

Home | Current Version | Previous Version | Text Only | Print | Product List | Glossary On
Versions: 1 2 3 4 5 6 7 8 9 10 11 12 13 14 15 16 17 18 19 20 21 22 23 24 25 26 27 28 29 30 31 32 33 34 35 36 37 38 39 40 41 42 43 44 45 46 47 48 49 50
000
ASUS44 KOUN 280610
RWROK

WEATHER ROUNDUP FOR OKLAHOMA
NATIONAL WEATHER SERVICE NORMAN OK
100 AM CDT THU JUL 28 2016

NOTE: "FAIR" INDICATES FEW OR NO CLOUDS BELOW 12,000 FEET WITH NO
      SIGNIFICANT WEATHER AND/OR OBSTRUCTIONS TO VISIBILITY.

OKZ001>007-009>012-014-015-017-280700-
NORTHWEST OKLAHOMA AND THE PANHANDLE

CITY           SKY/WX    TMP DP  RH WIND       PRES   REMARKS
GAGE           CLEAR     71  66  84 SW5       30.02F
6HR MIN TEMP:  71; 6HR MAX TEMP:  91;

GUYMON         PTCLDY    68  63  84 NW6       30.08R
ENID/WOODRING  CLEAR     73  70  88 CALM      29.96F
$$

OKZ016-021>023-033>039-044-045-280700-
SOUTHWEST OKLAHOMA

CITY           SKY/WX    TMP DP  RH WIND       PRES   REMARKS
LAWTON/REGL    CLEAR     78  71  79 CALM      29.96F
6HR MIN TEMP:  78; 6HR MAX TEMP:  93;

LAWTON/FT SILL CLEAR     78  71  80 S3        29.95F
FREDERICK      PTCLDY    80  70  71 S7        29.93F
CLINTON        CLOUDY    80  70  71 S8        30.02F
HOBART         CLOUDY    80  71  74 S9        29.98F
ALTUS AFB      PTCLDY    79  70  74 SE5       29.96F
$$

OKZ018>020-024>031-280700-
CENTRAL OKLAHOMA

CITY           SKY/WX    TMP DP  RH WIND       PRES   REMARKS
OKLAHOMA CITY  MOCLDY    75  72  90 SW3       29.97F
6HR MIN TEMP:  74; 6HR MAX TEMP:  78; 6HR PCP:  0.02;

OKC/WILEY POST CLEAR     75  72  90 S5        29.97F
OKC/TINKER AFB CLEAR     74  71  92 SE1       29.96F
STILLWATER     CLEAR     75  72  90 CALM      29.96F
GUTHRIE        CLEAR     76  73  91 SW3       29.96F
$$

OKZ008-013-054>072-280700-
NORTHEAST OKLAHOMA

CITY           SKY/WX    TMP DP  RH WIND       PRES   REMARKS
TULSA          MOCLDY    81  75  82 S3        29.93F
6HR MIN TEMP:  78; 6HR MAX TEMP:  84;

TULSA/JONES    CLEAR     75  75 100 CALM      29.95F
PONCA CITY     CLEAR     74  69  85 CALM      29.97R
BARTLESVILLE   CLEAR     75  74  96 CALM      29.96R
MUSKOGEE       PTCLDY    76  74  93 CALM      29.96S
$$

OKZ032-040>043-046>053-073>077-280700-
SOUTH CENTRAL/SOUTHEAST OKLAHOMA

CITY           SKY/WX    TMP DP  RH WIND       PRES   REMARKS
ARDMORE/DWNTWN CLEAR     75  72  88 CALM      29.95F
MCALESTER      MOCLDY    76  71  85 S3        29.96R
$$





USA.gov is the U.S. government's official web portal to all federal, state and local government web resources and services.